Location: Archemont
(49.1579°N, 1.7598°E)
Time: 15:13:25
(UTC+00:00)

Cosmos 1943 Rocket - Pass Details

Date: 03 February 2023
Orbit: 811 x 844 km, 71.0° (Epoch: 30 March)

Event Time Altitude Azimuth Distance (km) Brightness Sun altitude
Rises 18:51:50 0° 334° (NNW) 3,414 5.7 -19.7°
Reaches altitude 10° 18:55:19 10° 356° (N) 2,476 4.7 -20.2°
Enters shadow 18:58:20 16° 28° (NNE) 2,069 3.9 -20.7°
